User: anonymous   Login
Location: Unspecified
(0.0000°N, 0.0000°E)
Time: 23:50:56
(UTC+00:00)
Language:

FALCON 9 R/B - Orbit

View from above orbital plane
View from above orbital plane
View from above satellite
View from above satellite

Ground track
Ground track

The orbit data is extracted from the following two-line orbital elements,

1 37253U 10066K   14297.33863607  .00013922  00000-0  13673-2 0  2275
2 37253 034.5486 340.0404 4354083 286.9195 030.8203 06.76251646 94286
Epoch (UTC): 24 October 2014 08:07:38
Eccentricity: 0.4354083
inclination: 34.5486°
perigee height: 291 km
apogee height: 10577 km
right ascension of ascending node: 340.0404°
argument of perigee: 286.9195°
revolutions per day: 6.76251646
mean anomaly at epoch: 30.8203°
orbit number at epoch: 9428

The dashed part of the orbit path shows where the satellite is in the earth's shadow,  

DLR